Hauptseite
METAR-TAF:

METAR-TAF

Flughäfen :

Shepherd Bay, Nunavut, Kanada

Breite: 68-49N, Länge: 093-26W, Höhe: 51 m

Beobachtung

Neuester Wetterbericht von vor 44 Minuten, um 22:00 UTC
Wind 17 kt aus Süd/Südost
Temperatur -23°C
Luftfeuchtigkeit 76%
Luftdruck 1016 hPa
Geschlossene Wolkendecke in der Höhe von 12000 ft

METAR: CYUS 092200Z AUTO 16017KT ////SM //// OVC120 M23/M26 A2999

Zeit: 15:44 (22:44 UTC)


TAF: fehlend

Wetterbeobachtungen und Prognosen von mehr als 4000 Flughäfen (METAR und TAF Bericht).

Die verfügbaren Stationen werden durch gelbe und rote Markierungen auf der Karte dargestellt.

Führen Sie die Maus auf sie, um den Namen der Station zu sehen.

Darauf klicken, um die Beobachtung von Wetterbeobachtungen und Prognosen zu sehen.

Um die Karte zu ändern : klicken Sie auf den grünen Tasten mit einem schwarzen Kreuz Zum Vergrößern, auf den grünen Button mit einem Gedankenstrich zu verkleinern, oder auf die grünen Pfeile für benachbarte Karten.


METAR-TAF: